Location: Newark
(48.6461°N, 4.3644°W)
Time: 04:33:23
(UTC+00:00)

Transit 4A - Pass Details

Date: 01 February 2020
Orbit: 872 x 973 km, 66.8° (Epoch: 18 February)

Event Time Altitude Azimuth Distance (km) Brightness Sun altitude
Rises 07:08:44 0° 252° (WSW) 3,521 - -6.8°
Exits shadow 07:09:06 - 253° (WSW) 3,399 10.3 -6.8°
Reaches altitude 10° 07:11:36 10° 263° (W) 2,568 9.7 -6.4°
Maximum altitude 07:16:43 29° 323° (NW) 1,560 8.7 -5.6°
Drops below altitude 10° 07:21:48 10° 23° (NNE) 2,538 10.2 -4.8°
Sets 07:24:37 0° 35° (NE) 3,474 11.1 -4.3°
